| time (UTC) | temp F | wind direction | speed MPH | gust MPH | rain 1hr in | rain 24hr in | rain mn in | humidity % | barometer mb |
| 20260906170125 | 84 | 164 | 0.0 | 1.0 | 0.00 | 0.00 | 0.00 | 61 | 1022.8 |
| 20260906165125 | 84 | 164 | 0.0 | 2.0 | 0.00 | 0.00 | 0.00 | 57 | 1022.7 |
| 20260906164130 | 85 | 165 | 0.0 | 1.0 | 0.00 | 0.00 | 0.00 | 56 | 1022.7 |
| 20260906163133 | 85 | 165 | 0.0 | 2.0 | 0.00 | 0.00 | 0.00 | 54 | 1022.6 |
| 20260906162130 | 86 | 165 | 0.0 | 2.0 | 0.00 | 0.00 | 0.00 | 52 | 1022.5 |
| 20260906161134 | 86 | 165 | 0.0 | 2.0 | 0.00 | 0.00 | 0.00 | 52 | 1022.6 |
| 20260906160116 | 87 | 165 | 0.0 | 2.0 | 0.00 | 0.00 | 0.00 | 51 | 1022.5 |
| 20260906155118 | 87 | 173 | 1.0 | 2.0 | 0.00 | 0.00 | 0.00 | 51 | 1022.5 |
| 20260906154120 | 86 | 84 | 0.0 | 2.0 | 0.00 | 0.00 | 0.00 | 51 | 1022.6 |
| 20260906153121 | 86 | 80 | 1.0 | 2.0 | 0.00 | 0.00 | 0.00 | 53 | 1022.5 |
| 20260906152127 | 86 | 80 | 0.0 | 2.0 | 0.00 | 0.00 | 0.00 | 52 | 1022.6 |
| 20260906151129 | 86 | 79 | 1.0 | 3.0 | 0.00 | 0.00 | 0.00 | 52 | 1022.7 |
| 20260906150133 | 86 | 138 | 0.0 | 3.0 | 0.00 | 0.00 | 0.00 | 51 | 1022.7 |
| 20260906145157 | 86 | 169 | 0.0 | 2.0 | 0.00 | 0.00 | 0.00 | 52 | 1022.7 |
| 20260906144118 | 86 | 164 | 2.0 | 5.0 | 0.00 | 0.00 | 0.00 | 51 | 1022.7 |
| 20260906143125 | 87 | 130 | 1.0 | 4.0 | 0.00 | 0.00 | 0.00 | 51 | 1022.8 |
| 20260906142129 | 88 | 105 | 1.0 | 4.0 | 0.00 | 0.00 | 0.00 | 50 | 1022.9 |
| 20260906141132 | 87 | 94 | 0.0 | 4.0 | 0.00 | 0.00 | 0.00 | 50 | 1022.8 |
| 20260906140136 | 87 | 98 | 1.0 | 3.0 | 0.00 | 0.00 | 0.00 | 51 | 1022.9 |
| 20260906135122 | 87 | 102 | 2.0 | 5.0 | 0.00 | 0.00 | 0.00 | 52 | 1022.9 |
| 20260906134145 | 87 | 218 | 2.0 | 4.0 | 0.00 | 0.00 | 0.00 | 49 | 1022.9 |
| 20260906133127 | 87 | 180 | 1.0 | 3.0 | 0.00 | 0.00 | 0.00 | 50 | 1023.1 |
| 20260906132153 | 87 | 90 | 2.0 | 3.0 | 0.00 | 0.00 | 0.00 | 57 | 1023.2 |
| 20260906131155 | 87 | 88 | 0.0 | 3.0 | 0.00 | 0.00 | 0.00 | 53 | 1023.3 |
| 20260906130119 | 87 | 102 | 2.0 | 4.0 | 0.00 | 0.00 | 0.00 | 52 | 1023.4 |
| 20260906125122 | 87 | 109 | 0.0 | 4.0 | 0.00 | 0.00 | 0.00 | 53 | 1023.4 |
| 20260906124125 | 86 | 33 | 0.0 | 5.0 | 0.00 | 0.00 | 0.00 | 54 | 1023.5 |
| 20260906123127 | 87 | 56 | 1.0 | 4.0 | 0.00 | 0.00 | 0.00 | 52 | 1023.5 |
| 20260906122132 | 87 | 178 | 1.0 | 3.0 | 0.00 | 0.00 | 0.00 | 51 | 1023.5 |
| 20260906121132 | 86 | 83 | 2.0 | 4.0 | 0.00 | 0.00 | 0.00 | 56 | 1023.5 |
| 20260906120135 | 85 | 43 | 2.0 | 4.0 | 0.00 | 0.00 | 0.00 | 56 | 1023.5 |
| 20260906115116 | 85 | 88 | 1.0 | 5.0 | 0.00 | 0.00 | 0.00 | 55 | 1023.6 |
| 20260906114124 | 86 | 80 | 1.0 | 3.0 | 0.00 | 0.00 | 0.00 | 57 | 1023.7 |
| 20260906113127 | 85 | 80 | 2.0 | 4.0 | 0.00 | 0.00 | 0.00 | 57 | 1023.8 |
| 20260906112130 | 85 | 232 | 1.0 | 4.0 | 0.00 | 0.00 | 0.00 | 54 | 1023.8 |
| 20260906111133 | 85 | 43 | 2.0 | 5.0 | 0.00 | 0.00 | 0.00 | 55 | 1023.8 |
| 20260906110120 | 84 | 32 | 0.0 | 4.0 | 0.00 | 0.00 | 0.00 | 55 | 1023.9 |
| 20260906105124 | 84 | 88 | 2.0 | 3.0 | 0.00 | 0.00 | 0.00 | 59 | 1023.9 |
| 20260906104127 | 83 | 27 | 1.0 | 5.0 | 0.00 | 0.00 | 0.00 | 58 | 1023.9 |
| 20260906103131 | 84 | 88 | 1.0 | 5.0 | 0.00 | 0.00 | 0.00 | 57 | 1023.9 |
| 20260906102153 | 84 | 72 | 0.0 | 4.0 | 0.00 | 0.00 | 0.00 | 59 | 1024.0 |
| 20260906101116 | 84 | 78 | 1.0 | 5.0 | 0.00 | 0.00 | 0.00 | 60 | 1024.2 |
| 20260906100120 | 83 | 67 | 1.0 | 4.0 | 0.00 | 0.00 | 0.00 | 61 | 1024.3 |
| 20260906095123 | 83 | 70 | 1.0 | 3.0 | 0.00 | 0.00 | 0.00 | 62 | 1024.3 |
| 20260906094127 | 83 | 67 | 1.0 | 3.0 | 0.00 | 0.00 | 0.00 | 61 | 1024.4 |
| 20260906093156 | 82 | 67 | 1.0 | 4.0 | 0.00 | 0.00 | 0.00 | 60 | 1024.4 |
| 20260906092136 | 81 | 83 | 1.0 | 3.0 | 0.00 | 0.00 | 0.00 | 62 | 1024.4 |
| 20260906091119 | 81 | 15 | 0.0 | 3.0 | 0.00 | 0.00 | 0.00 | 61 | 1024.5 |
| 20260906090121 | 81 | 15 | 0.0 | 3.0 | 0.00 | 0.00 | 0.00 | 60 | 1024.5 |
| 20260906085129 | 80 | 15 | 0.0 | 2.0 | 0.00 | 0.00 | 0.00 | 55 | 1024.4 |
| 20260906084129 | 80 | 15 | 1.0 | 2.0 | 0.00 | 0.00 | 0.00 | 59 | 1024.3 |
| 20260906083127 | 79 | 15 | 0.0 | 1.0 | 0.00 | 0.00 | 0.00 | 62 | 1024.3 |
| 20260906082151 | 78 | 15 | 0.0 | 0.0 | 0.00 | 0.00 | 0.00 | 60 | 1024.4 |
| 20260906081117 | 78 | 15 | 0.0 | 1.0 | 0.00 | 0.00 | 0.00 | 62 | 1024.3 |
| 20260906080121 | 79 | 15 | 0.0 | 1.0 | 0.00 | 0.00 | 0.00 | 59 | 1024.2 |
| 20260906075125 | 79 | 15 | 0.0 | 2.0 | 0.00 | 0.00 | 0.00 | 59 | 1024.2 |
| 20260906074128 | 78 | 15 | 0.0 | 2.0 | 0.00 | 0.00 | 0.00 | 53 | 1024.0 |
| 20260906073132 | 77 | 15 | 0.0 | 2.0 | 0.00 | 0.00 | 0.00 | 59 | 1024.0 |
| 20260906072119 | 76 | 15 | 1.0 | 3.0 | 0.00 | 0.00 | 0.00 | 54 | 1023.9 |
| 20260906071120 | 76 | 15 | 0.0 | 2.0 | 0.00 | 0.00 | 0.00 | 55 | 1023.8 |
| 20260906070123 | 75 | 15 | 0.0 | 2.0 | 0.00 | 0.00 | 0.00 | 58 | 1023.7 |
| 20260906065125 | 75 | 15 | 1.0 | 4.0 | 0.00 | 0.00 | 0.00 | 58 | 1023.7 |
| 20260906064133 | 74 | 5 | 1.0 | 3.0 | 0.00 | 0.00 | 0.00 | 61 | 1023.6 |
| 20260906063136 | 74 | 5 | 0.0 | 2.0 | 0.00 | 0.00 | 0.00 | 55 | 1023.5 |
| 20260906062119 | 74 | 5 | 0.0 | 3.0 | 0.00 | 0.00 | 0.00 | 53 | 1023.4 |
| 20260906061122 | 73 | 140 | 2.0 | 4.0 | 0.00 | 0.00 | 0.00 | 54 | 1023.3 |
| 20260906060130 | 72 | 280 | 0.0 | 2.0 | 0.00 | 0.00 | 0.00 | 59 | 1023.2 |
| 20260906055133 | 73 | 280 | 1.0 | 2.0 | 0.00 | 0.00 | 0.00 | 57 | 1023.2 |
| 20260906054136 | 73 | 280 | 1.0 | 2.0 | 0.00 | 0.00 | 0.00 | 55 | 1023.0 |
| 20260906053119 | 73 | 133 | 1.0 | 3.0 | 0.00 | 0.00 | 0.00 | 52 | 1022.8 |
| 20260906052129 | 73 | 114 | 1.0 | 4.0 | 0.00 | 0.00 | 0.00 | 53 | 1022.7 |
| 20260906051151 | 73 | 24 | 1.0 | 3.0 | 0.00 | 0.00 | 0.00 | 52 | 1022.5 |
| 20260906050134 | 73 | 115 | 0.0 | 5.0 | 0.00 | 0.00 | 0.00 | 53 | 1022.4 |
| 20260906045136 | 73 | 111 | 1.0 | 3.0 | 0.00 | 0.00 | 0.00 | 53 | 1022.4 |
| 20260906044124 | 72 | 168 | 1.0 | 3.0 | 0.00 | 0.00 | 0.00 | 55 | 1022.2 |
| 20260906043127 | 72 | 168 | 1.0 | 3.0 | 0.00 | 0.00 | 0.00 | 56 | 1022.0 |
| 20260906042132 | 71 | 242 | 0.0 | 2.0 | 0.00 | 0.00 | 0.00 | 58 | 1022.1 |
| 20260906041134 | 71 | 355 | 1.0 | 4.0 | 0.00 | 0.00 | 0.00 | 58 | 1022.1 |
| 20260906040121 | 71 | 218 | 0.0 | 2.0 | 0.00 | 0.00 | 0.00 | 59 | 1022.0 |
| 20260906035145 | 71 | 218 | 1.0 | 5.0 | 0.00 | 0.00 | 0.00 | 60 | 1021.8 |
| 20260906034146 | 70 | 221 | 0.0 | 3.0 | 0.00 | 0.00 | 0.00 | 61 | 1021.8 |
| 20260906033131 | 71 | 223 | 0.0 | 3.0 | 0.00 | 0.00 | 0.00 | 62 | 1021.7 |
| 20260906032133 | 72 | 223 | 0.0 | 2.0 | 0.00 | 0.00 | 0.00 | 59 | 1021.8 |
| 20260906031120 | 71 | 223 | 0.0 | 4.0 | 0.00 | 0.00 | 0.00 | 60 | 1021.7 |
| 20260906030124 | 70 | 252 | 0.0 | 3.0 | 0.00 | 0.00 | 0.00 | 61 | 1021.6 |
| 20260906025146 | 71 | 252 | 0.0 | 1.0 | 0.00 | 0.00 | 0.00 | 62 | 1021.5 |
| 20260906024127 | 71 | 252 | 0.0 | 1.0 | 0.00 | 0.00 | 0.00 | 61 | 1021.4 |
| 20260906023135 | 71 | 252 | 1.0 | 3.0 | 0.00 | 0.00 | 0.00 | 63 | 1021.4 |
| 20260906022137 | 71 | 252 | 0.0 | 2.0 | 0.00 | 0.00 | 0.00 | 62 | 1021.4 |
| 20260906021121 | 71 | 252 | 1.0 | 5.0 | 0.00 | 0.00 | 0.00 | 62 | 1021.4 |
| 20260906020124 | 72 | 295 | 1.0 | 3.0 | 0.00 | 0.00 | 0.00 | 59 | 1021.3 |
| 20260906015130 | 72 | 296 | 1.0 | 3.0 | 0.00 | 0.00 | 0.00 | 59 | 1021.4 |
| 20260906014134 | 73 | 350 | 2.0 | 3.0 | 0.00 | 0.00 | 0.00 | 56 | 1021.3 |
| 20260906013118 | 74 | 19 | 1.0 | 3.0 | 0.00 | 0.00 | 0.00 | 53 | 1021.1 |
| 20260906012121 | 75 | 348 | 0.0 | 4.0 | 0.00 | 0.00 | 0.00 | 52 | 1021.0 |
| 20260906011130 | 75 | 288 | 0.0 | 4.0 | 0.00 | 0.00 | 0.00 | 52 | 1020.9 |
| 20260906010132 | 75 | 83 | 1.0 | 4.0 | 0.00 | 0.00 | 0.00 | 49 | 1020.9 |
| 20260906005136 | 75 | 229 | 1.0 | 4.0 | 0.00 | 0.00 | 0.00 | 50 | 1020.9 |
| 20260906004140 | 76 | 224 | 0.0 | 4.0 | 0.00 | 0.00 | 0.00 | 50 | 1020.9 |
| 20260906003124 | 76 | 91 | 0.0 | 4.0 | 0.00 | 0.00 | 0.00 | 50 | 1020.8 |
| 20260906002131 | 76 | 90 | 1.0 | 4.0 | 0.00 | 0.00 | 0.00 | 49 | 1020.8 |
| 20260906001134 | 76 | 53 | 0.0 | 3.0 | 0.00 | 0.00 | 0.00 | 48 | 1020.9 |
| 20260906000137 | 77 | 128 | 1.0 | 2.0 | 0.00 | 0.00 | 0.00 | 48 | 1020.8 |
| 20260905235119 | 77 | 24 | 1.0 | 3.0 | 0.00 | 0.00 | 0.00 | 48 | 1020.8 |
| 20260905234147 | 77 | 161 | 1.0 | 3.0 | 0.00 | 0.00 | 0.00 | 48 | 1020.8 |
| 20260905233129 | 76 | 178 | 2.0 | 5.0 | 0.00 | 0.00 | 0.00 | 49 | 1020.8 |
| 20260905232133 | 76 | 236 | 1.0 | 3.0 | 0.00 | 0.00 | 0.00 | 51 | 1020.9 |
| 20260905231136 | 75 | 239 | 0.0 | 4.0 | 0.00 | 0.00 | 0.00 | 53 | 1020.9 |
| 20260905230125 | 74 | 240 | 3.0 | 7.0 | 0.00 | 0.00 | 0.00 | 55 | 1020.9 |
| 20260905225129 | 74 | 232 | 2.0 | 3.0 | 0.00 | 0.00 | 0.00 | 58 | 1021.0 |
| 20260905224151 | 76 | 232 | 1.0 | 2.0 | 0.00 | 0.00 | 0.00 | 55 | 1020.8 |
| 20260905223133 | 76 | 231 | 0.0 | 1.0 | 0.00 | 0.00 | 0.00 | 52 | 1020.6 |
| 20260905222120 | 77 | 231 | 0.0 | 3.0 | 0.00 | 0.00 | 0.00 | 52 | 1020.6 |
| 20260905221137 | 77 | 190 | 1.0 | 3.0 | 0.00 | 0.00 | 0.00 | 52 | 1020.4 |
| 20260905220119 | 78 | 188 | 0.0 | 3.0 | 0.00 | 0.00 | 0.00 | 51 | 1020.3 |
| 20260905215123 | 78 | 90 | 0.0 | 2.0 | 0.00 | 0.00 | 0.00 | 50 | 1020.4 |
| 20260905214126 | 78 | 81 | 1.0 | 3.0 | 0.00 | 0.00 | 0.00 | 50 | 1020.3 |
| 20260905213152 | 78 | 5 | 0.0 | 5.0 | 0.00 | 0.00 | 0.00 | 51 | 1020.3 |
| 20260905212132 | 78 | 160 | 0.0 | 2.0 | 0.00 | 0.00 | 0.00 | 51 | 1020.3 |
| 20260905211135 | 78 | 159 | 1.0 | 4.0 | 0.00 | 0.00 | 0.00 | 52 | 1020.2 |
| 20260905210136 | 78 | 260 | 1.0 | 4.0 | 0.00 | 0.00 | 0.00 | 53 | 1020.1 |
| 20260905205123 | 77 | 210 | 0.0 | 3.0 | 0.00 | 0.00 | 0.00 | 56 | 1020.1 |
| 20260905204123 | 77 | 202 | 2.0 | 8.0 | 0.00 | 0.00 | 0.00 | 57 | 1019.9 |
| 20260905203124 | 76 | 259 | 1.0 | 2.0 | 0.00 | 0.00 | 0.00 | 56 | 1019.8 |
| 20260905202126 | 76 | 262 | 0.0 | 1.0 | 0.00 | 0.00 | 0.00 | 60 | 1019.8 |
| 20260905201145 | 76 | 264 | 1.0 | 4.0 | 0.00 | 0.00 | 0.00 | 60 | 1019.8 |
| 20260905200125 | 76 | 196 | 0.0 | 1.0 | 0.00 | 0.00 | 0.00 | 61 | 1019.7 |
| 20260905195121 | 76 | 196 | 1.0 | 4.0 | 0.00 | 0.00 | 0.00 | 60 | 1019.6 |
| 20260905194137 | 76 | 221 | 1.0 | 3.0 | 0.00 | 0.00 | 0.00 | 62 | 1019.4 |
| 20260905193133 | 77 | 221 | 1.0 | 4.0 | 0.00 | 0.00 | 0.00 | 62 | 1019.3 |
| 20260905192133 | 78 | 355 | 0.0 | 3.0 | 0.00 | 0.00 | 0.00 | 58 | 1019.3 |
| 20260905191124 | 79 | 31 | 0.0 | 3.0 | 0.00 | 0.00 | 0.00 | 58 | 1019.2 |
| 20260905190134 | 79 | 230 | 0.0 | 4.0 | 0.00 | 0.00 | 0.00 | 60 | 1019.0 |
| 20260905185129 | 79 | 81 | 0.0 | 4.0 | 0.00 | 0.00 | 0.00 | 60 | 1018.8 |
| 20260905184147 | 78 | 234 | 1.0 | 3.0 | 0.00 | 0.00 | 0.00 | 61 | 1018.8 |
| 20260905183134 | 76 | 238 | 0.0 | 2.0 | 0.00 | 0.00 | 0.00 | 67 | 1018.6 |
| 20260905182135 | 77 | 238 | 1.0 | 3.0 | 0.00 | 0.00 | 0.00 | 70 | 1018.4 |
| 20260905181138 | 78 | 238 | 1.0 | 4.0 | 0.00 | 0.00 | 0.00 | 67 | 1018.3 |
| 20260905180121 | 78 | 238 | 1.0 | 3.0 | 0.00 | 0.00 | 0.00 | 68 | 1018.3 |
| 20260905175128 | 80 | 238 | 1.0 | 2.0 | 0.00 | 0.00 | 0.00 | 66 | 1018.2 |
| 20260905174129 | 81 | 238 | 1.0 | 3.0 | 0.00 | 0.00 | 0.00 | 62 | 1018.1 |
| 20260905173131 | 82 | 238 | 0.0 | 1.0 | 0.00 | 0.00 | 0.00 | 61 | 1018.0 |
| 20260905172131 | 82 | 238 | 0.0 | 1.0 | 0.00 | 0.00 | 0.00 | 59 | 1017.9 |
| 20260905171118 | 84 | 238 | 0.0 | 0.0 | 0.00 | 0.00 | 0.00 | 56 | 1017.8 |